Lumberton, NC

1:24 PM EDT on May 25, 2017 (GMT -0400)
Lumberton Municipal

Weather History for KLBT - August, 2012

Change the Weather History Date:

Monday, August 20, 2012

  Actual Average Record
Temperature  
Mean Temperature 78 °F 79 °F  
Max Temperature 84 °F 88 °F 100 °F (2007)
Min Temperature 71 °F 69 °F 68 °F (2008)
Degree Days  
Heating Degree Days 0 0  
Month to date heating degree days 0 0  
Since 1 June heating degree days 0 0  
Since 1 July heating degree days 0 0  
Cooling Degree Days 13 14  
Month to date cooling degree days 293 294  
Year to date cooling degree days 1593 1432  
Since 1 June cooling degree days 1187 1182  
Growing Degree Days 26 (Base 50)    
Moisture  
Dew Point 71 °F    
Average Humidity 82    
Maximum Humidity 100    
Minimum Humidity 63    
Precipitation  
Precipitation 1.72 in 0.18 in 1.72 in (2012)
Month to date precipitation 4.66 3.65  
Year to date precipitation 32.24 28.54  
Sea Level Pressure  
Sea Level Pressure 29.88 in    
Wind  
Wind Speed 3 mph (NNE)    
Max Wind Speed 10 mph    
Max Gust Speed 13 mph    
Visibility 6 miles    
Events Rain    
T = Trace of Precipitation, MM = Missing Value Source: NWS Daily Summary

Daily Weather History Graph

Daily Weather History Graph

Search for Another Location

Airport or City:

Trip Planner

Search our weather history database for the weather conditions in past years. The results will help you decide how hot, cold, wet, or windy it might be!

Date:

Astronomy

Aug. 20, 2012 Rise Set
Actual Time 6:40 AM EDT 7:57 PM EDT
Civil Twilight 6:14 AM EDT 8:23 PM EDT
Nautical Twilight 5:43 AM EDT 8:55 PM EDT
Astronomical Twilight 5:10 AM EDT 9:27 PM EDT
Moon 9:49 AM EDT (8/20) 9:32 PM EDT (8/20)
Length of Visible Light 14h 09m
Length of Day
13h 16m
Waxing Crescent, 11% of the Moon is Illuminated
Aug 20
Waxing Crescent
Aug 24
First Quarter
Aug 31
Full
Sep 8
Last Quarter
Sep 15
New

Hourly Weather History & Observations

Time (EDT) Temp. Heat Index Dew Point Humidity Pressure Visibility Wind Dir Wind Speed Gust Speed Precip Events Conditions
12:54 AM 73.0 °F - 71.1 °F 93% 29.87 in 10.0 mi Calm Calm - N/A   Mostly Cloudy
1:54 AM 73.0 °F - 72.0 °F 96% 29.86 in 7.0 mi Calm Calm - 0.01 in Rain Light Rain
2:30 AM 73.4 °F - 71.6 °F 94% 29.85 in 10.0 mi NE 3.5 mph - 0.02 in   Overcast
2:54 AM 73.0 °F - 71.1 °F 93% 29.86 in 9.0 mi Calm Calm - 0.02 in   Overcast
3:42 AM 71.6 °F - 71.6 °F 100% 29.84 in 7.0 mi ENE 3.5 mph - N/A   Overcast
3:54 AM 72.0 °F - 71.1 °F 97% 29.83 in 7.0 mi ENE 4.6 mph - N/A   Overcast
4:09 AM 71.6 °F - 71.6 °F 100% 29.83 in 7.0 mi Calm Calm - N/A   Overcast
4:16 AM 71.6 °F - 71.6 °F 100% 29.84 in 1.8 mi North 3.5 mph - 0.09 in Rain Rain
4:20 AM 71.6 °F - 71.6 °F 100% 29.84 in 1.0 mi NNW 4.6 mph - 0.17 in Rain Heavy Rain
4:26 AM 71.6 °F - 71.6 °F 100% 29.83 in 1.8 mi NNE 4.6 mph - 0.18 in Rain Light Rain
4:29 AM 71.6 °F - 71.6 °F 100% 29.84 in 3.0 mi ENE 3.5 mph - 0.18 in Rain Light Rain
4:51 AM 71.6 °F - 71.6 °F 100% 29.83 in 1.8 mi North 4.6 mph - 0.31 in Rain Heavy Rain
4:54 AM 71.1 °F - 71.1 °F 100% 29.83 in 1.2 mi North 5.8 mph - 0.37 in Rain Heavy Rain
5:00 AM 71.6 °F - 71.6 °F 100% 29.83 in 0.8 mi NE 4.6 mph - 0.20 in Rain Heavy Rain
5:10 AM 71.6 °F - 71.6 °F 100% 29.84 in 1.2 mi East 4.6 mph - 0.37 in Rain Heavy Rain
5:17 AM 71.6 °F - 71.6 °F 100% 29.83 in 1.0 mi ENE 9.2 mph - 0.60 in Rain Heavy Rain
5:27 AM 71.6 °F - 71.6 °F 100% 29.84 in 1.8 mi Calm Calm - 0.73 in Rain Heavy Rain
5:34 AM 71.6 °F - 71.6 °F 100% 29.84 in 1.2 mi East 4.6 mph - 0.89 in Rain Heavy Rain
5:46 AM 71.6 °F - 71.6 °F 100% 29.84 in 2.0 mi NNE 4.6 mph - 0.99 in Rain Heavy Rain
5:54 AM 71.1 °F - 71.1 °F 100% 29.84 in 3.0 mi NE 3.5 mph - 1.01 in Rain Rain
6:04 AM 71.6 °F - 71.6 °F 100% 29.85 in 4.0 mi NNW 3.5 mph - 0.02 in Rain Rain
6:13 AM 71.6 °F - 71.6 °F 100% 29.85 in 2.5 mi North 3.5 mph - 0.05 in Rain Heavy Rain
6:18 AM 71.6 °F - 71.6 °F 100% 29.85 in 3.0 mi North 4.6 mph - 0.06 in Rain Rain
6:28 AM 71.6 °F - 69.8 °F 94% 29.86 in 6.0 mi North 4.6 mph - 0.07 in Rain Light Rain
6:36 AM 71.6 °F - 69.8 °F 94% 29.86 in 6.0 mi Calm Calm - 0.07 in Rain Light Rain
6:54 AM 71.1 °F - 70.0 °F 96% 29.86 in 7.0 mi NNE 4.6 mph - 0.08 in Rain Light Rain
7:04 AM 71.6 °F - 69.8 °F 94% 29.87 in 10.0 mi NE 5.8 mph - 0.00 in   Overcast
7:27 AM 71.6 °F - 69.8 °F 94% 29.87 in 4.0 mi NNE 6.9 mph - 0.02 in Rain Rain
7:54 AM 71.1 °F - 70.0 °F 96% 29.89 in 7.0 mi NNW 5.8 mph - 0.04 in Rain Light Rain
7:59 AM 71.6 °F - 69.8 °F 94% 29.89 in 2.0 mi NW 8.1 mph - 0.04 in Rain Rain
8:03 AM 71.6 °F - 69.8 °F 94% 29.89 in 1.2 mi North 3.5 mph - 0.06 in Rain Heavy Rain
8:09 AM 71.6 °F - 69.8 °F 94% 29.90 in 2.0 mi North 3.5 mph - 0.06 in Rain Light Rain
8:15 AM 71.6 °F - 69.8 °F 94% 29.89 in 9.0 mi NNE 3.5 mph - 0.06 in Rain Light Rain
8:54 AM 72.0 °F - 71.1 °F 97% 29.90 in 10.0 mi Calm Calm - 0.06 in   Overcast
9:26 AM 73.4 °F - 71.6 °F 94% 29.91 in 10.0 mi North 5.8 mph - 0.00 in Rain Light Rain
9:54 AM 73.0 °F - 71.1 °F 93% 29.91 in 10.0 mi NNE 5.8 mph - 0.00 in   Overcast
10:14 AM 73.4 °F - 71.6 °F 94% 29.91 in 10.0 mi North 5.8 mph - N/A   Overcast
10:23 AM 73.4 °F - 71.6 °F 94% 29.92 in 10.0 mi NNE 6.9 mph - N/A   Overcast
10:39 AM 73.4 °F - 71.6 °F 94% 29.92 in 10.0 mi North 4.6 mph - N/A   Overcast
10:50 AM 71.6 °F - 69.8 °F 94% 29.93 in 10.0 mi NE 5.8 mph - N/A   Overcast
10:54 AM 72.0 °F - 70.0 °F 93% 29.93 in 10.0 mi North 5.8 mph - N/A   Overcast
11:12 AM 71.6 °F - 69.8 °F 94% 29.94 in 1.8 mi NNW 6.9 mph - 0.04 in Rain Heavy Rain
11:17 AM 71.6 °F - 69.8 °F 94% 29.93 in 1.0 mi North 5.8 mph - 0.08 in Rain Heavy Rain
11:25 AM 71.6 °F - 69.8 °F 94% 29.93 in 1.2 mi North 3.5 mph - 0.13 in Rain Rain
11:30 AM 71.6 °F - 69.8 °F 94% 29.93 in 2.0 mi North 5.8 mph - 0.13 in Rain Rain
11:40 AM 71.6 °F - 69.8 °F 94% 29.93 in 5.0 mi NNE 4.6 mph - 0.13 in Rain Light Rain
11:54 AM 73.0 °F - 70.0 °F 90% 29.92 in 10.0 mi NNE 4.6 mph - 0.13 in   Overcast
12:12 PM 75.2 °F - 69.8 °F 83% 29.92 in 10.0 mi NNE 4.6 mph - N/A   Overcast
12:54 PM 75.9 °F - 69.1 °F 79% 29.91 in 10.0 mi NNE 3.5 mph - N/A   Overcast
1:54 PM 78.1 °F - 69.1 °F 74% 29.89 in 10.0 mi Variable 4.6 mph - N/A   Mostly Cloudy
2:06 PM 78.8 °F - 69.8 °F 74% 29.89 in 10.0 mi Variable 3.5 mph - N/A   Scattered Clouds
2:54 PM 81.0 °F 84.1 °F 69.1 °F 67% 29.89 in 10.0 mi NNW 5.8 mph - N/A   Mostly Cloudy
3:54 PM 82.9 °F 85.8 °F 68.0 °F 60% 29.88 in 10.0 mi Variable 3.5 mph - N/A   Partly Cloudy
4:54 PM 82.0 °F 84.9 °F 68.0 °F 62% 29.88 in 10.0 mi North 5.8 mph - N/A   Partly Cloudy
5:54 PM 81.0 °F 83.8 °F 68.0 °F 65% 29.88 in 10.0 mi Calm Calm - N/A   Clear
6:54 PM 79.0 °F - 69.1 °F 72% 29.90 in 10.0 mi NNW 4.6 mph - N/A   Clear
7:54 PM 75.0 °F - 73.0 °F 94% 29.92 in 10.0 mi Calm Calm - N/A   Clear
8:54 PM 73.9 °F - 73.0 °F 97% 29.93 in 10.0 mi Calm Calm - N/A   Clear
9:54 PM 73.9 °F - 73.0 °F 97% 29.95 in 10.0 mi Calm Calm - N/A   Clear
10:54 PM 73.9 °F - 73.0 °F 97% 29.95 in 10.0 mi Calm Calm - N/A   Partly Cloudy
11:54 PM 73.9 °F - 73.0 °F 97% 29.96 in 9.0 mi Calm Calm - N/A   Partly Cloudy